TimeCDT,TemperatureF,Dew PointF,Humidity,Sea Level PressureIn,VisibilityMPH,Wind Direction,Wind SpeedMPH,Gust SpeedMPH,PrecipitationIn,Events,Conditions,WindDirDegrees,DateUTC
12:53 AM,77.0,73.9,90,29.99,9.0,SE,4.6,-,N/A,,Clear,130,2013-08-08 05:53:00
1:53 AM,75.9,73.0,91,29.98,10.0,SSE,3.5,-,N/A,,Clear,150,2013-08-08 06:53:00
2:53 AM,75.9,73.9,94,30.00,9.0,NE,3.5,-,N/A,,Clear,40,2013-08-08 07:53:00
3:53 AM,75.9,73.0,91,29.99,8.0,East,3.5,-,N/A,,Clear,90,2013-08-08 08:53:00
4:53 AM,75.9,73.0,91,29.99,10.0,ESE,4.6,-,N/A,,Clear,120,2013-08-08 09:53:00
5:53 AM,75.0,73.0,94,29.99,9.0,ESE,5.8,-,N/A,,Clear,120,2013-08-08 10:53:00
6:53 AM,75.9,73.0,91,30.02,7.0,Calm,Calm,-,N/A,,Clear,0,2013-08-08 11:53:00
7:53 AM,78.1,73.9,87,30.03,8.0,East,6.9,-,N/A,,Clear,90,2013-08-08 12:53:00
8:00 AM,78.8,73.4,83,30.05,8.0,East,6.9,-,N/A,,Partly Cloudy,80,2013-08-08 13:00:00
8:53 AM,81.0,75.0,82,30.03,10.0,SE,4.6,-,N/A,,Partly Cloudy,140,2013-08-08 13:53:00
9:53 AM,82.9,75.0,77,30.03,10.0,SE,5.8,-,N/A,,Scattered Clouds,140,2013-08-08 14:53:00
10:24 AM,86.0,75.2,70,30.06,10.0,ESE,6.9,-,N/A,,Mostly Cloudy,120,2013-08-08 15:24:00
10:38 AM,84.2,73.4,70,30.06,10.0,East,5.8,-,N/A,,Scattered Clouds,90,2013-08-08 15:38:00
10:53 AM,84.9,73.9,69,30.05,10.0,SE,6.9,-,N/A,,Partly Cloudy,130,2013-08-08 15:53:00
11:53 AM,87.1,73.9,65,30.04,10.0,East,3.5,-,N/A,,Mostly Cloudy,80,2013-08-08 16:53:00
12:53 PM,89.1,73.0,59,30.01,10.0,East,4.6,-,N/A,,Partly Cloudy,80,2013-08-08 17:53:00
1:53 PM,90.0,73.0,57,29.99,10.0,ESE,9.2,-,N/A,,Scattered Clouds,110,2013-08-08 18:53:00
2:53 PM,91.0,72.0,53,29.99,10.0,ESE,6.9,-,N/A,,Clear,110,2013-08-08 19:53:00
3:53 PM,91.9,72.0,52,29.98,10.0,SSE,6.9,-,N/A,,Clear,150,2013-08-08 20:53:00
4:19 PM,89.6,71.6,55,29.99,10.0,SSE,11.5,17.3,N/A,Thunderstorm,Partly Cloudy,150,2013-08-08 21:19:00
4:39 PM,77.0,73.4,89,30.01,0.8,SSE,26.5,35.7,0.26,Rain-Thunderstorm,Heavy Thunderstorms and Rain,150,2013-08-08 21:39:00
4:50 PM,75.2,71.6,89,30.02,1.0,SSE,16.1,-,0.45,Rain-Thunderstorm,Heavy Thunderstorms and Rain,150,2013-08-08 21:50:00
4:53 PM,75.9,73.0,91,30.01,1.2,SSE,12.7,-,0.46,Rain-Thunderstorm,Heavy Thunderstorms and Rain,150,2013-08-08 21:53:00
4:59 PM,75.2,73.4,94,30.02,3.0,South,11.5,-,0.03,Rain-Thunderstorm,Heavy Thunderstorms and Rain,170,2013-08-08 21:59:00
5:16 PM,75.2,73.4,94,30.01,6.0,SE,6.9,-,0.04,Rain,Rain,140,2013-08-08 22:16:00
5:25 PM,75.2,73.4,94,30.01,8.0,South,3.5,-,0.04,Rain,Light Rain,170,2013-08-08 22:25:00
5:53 PM,77.0,73.9,90,30.00,10.0,SSE,4.6,-,0.05,Rain,Light Rain,160,2013-08-08 22:53:00
6:53 PM,78.1,75.0,90,30.02,10.0,Calm,Calm,-,0.00,,Partly Cloudy,0,2013-08-08 23:53:00
7:53 PM,78.1,75.0,90,30.02,10.0,Calm,Calm,-,N/A,,Clear,0,2013-08-09 00:53:00
8:53 PM,75.9,73.9,94,30.01,10.0,ESE,4.6,-,N/A,,Clear,120,2013-08-09 01:53:00
9:53 PM,75.9,73.9,94,30.03,10.0,ESE,3.5,-,N/A,,Clear,120,2013-08-09 02:53:00
10:53 PM,75.9,73.9,94,30.04,10.0,NE,3.5,-,N/A,,Clear,50,2013-08-09 03:53:00
11:53 PM,75.0,73.0,94,30.03,10.0,Calm,Calm,-,N/A,,Clear,0,2013-08-09 04:53:00